レナード彗星

449P/Leonard (2014)

English version
Home page
Updated on November 20, 2022

---------------------------------------------------------------------

・ プロフィール

符号 449P/2013 Y3

・ 軌道要素

                    Epoch = 2014 Jan. 23.0 TT
     T = 2014 Jan. 14.57774 TT        Peri. = 176.46445
     e = 0.4736222                    Node  = 242.73597 2000.0
     q = 1.9061258 AU                 Incl. =  15.40716
       a =  3.6212125 AU   n = 0.14302865   P =   6.89 years

・ 光度変化

        m1 = 18.0 + 5 logΔ + 10.0 log r

---------------------------------------------------------------------

軌道要素は、CBET 5173に掲載されたものです。
光度グラフはComet for Windowsで作成したものです。

---------------------------------------------------------------------

Copyright(C) Seiichi Yoshida (comet@aerith.net). All rights reserved.